STARLINK-32695, 62866

Orbit data source: Space-Track

STARLINK-32695, 62866 is a payload satellite owned by SpaceX/Seattle (US) in LEO that was launched on Sat, 01 Feb 2025 UTC via an FALCON 9 launch vehicle from the Air Force Western Test Range (AFWTR). Payload-class satellites include a variety of spacecraft equipped with specific instruments for various scientific and technological missions. These include communications satellites like Starlink; space stations such as the ISS; scientific satellites like the Hubble; Earth observation satellites from companies like Planet Labs, Umbra, and HawkEye 360; GPS; miniature CubeSats for education and research; and military/defense satellites.

Loading next visibility...
Identifier
62866, 2025-022N
Orbit
LEO
Last TLE update
1 day ago
Origin
Manufacturer
SpaceX/Seattle
Mission
Operational Commercial Communications
Bus & Motor
STARLINK V2M, Unknown motor
Mass
730 kg wet, ~700 kg dry
Launch date (UTC)
2025-02-01 (3 months ago)
Launch vehicle
FALCON 9
Launch site
Air Force Western Test Range (AFWTR)
Object type
Payload
Rocket body
Debris
Shape & HBR
Box + 2 Pan, 29 m
Radar Cross Section
33.884 m², Large (>1 m²)

Expand to show TLE details & history

TLE from 1 day ago
0 STARLINK-32695
1 62866U 25022N   25128.33580076  .00001937  00000-0  58400-4 0  9990
2 62866  53.1607 111.8889 0001349  80.3098 279.8059 15.39616903 15091
Epoch: 2025-05-08T08:03Z
Definitive object data (Epoch: 2025-05-08T08:03:33.185Z)
Latitude
-0.00005°
Longitude
124.59283°
Altitude
447.988 km
Speed
7.645 km/s
True Right ascension
07h 27m 33s
True Declination
0° 00' 00"
Sunlit
Object was in daylight at TLE epoch
Visualization TLE readout
Latitude
10.53995°
Longitude
-68.10588°
Altitude
447.268 km
Speed
7.646 km/s
Apparent Right ascension
21h 41m 08s
Apparent Declination
-36° 11' 43"
Sunlit
Object is in full shadow
Visualization observer readout
Local Sidereal Time
16:18:05
Azimuth
123.94° SE
Elevation
-16.234°
Doppler factor
1
Orbital elements
Apogee altitude
448.419 km
Perigee altitude
446.578 km
Semi-major axis
6,825.636 km
Eccentricity
0.0001349
Inclination
53.1607°
RAAN
111.8889°
Arg. of periapsis
80.3098°
True anomaly
279.79067°
Mean anomaly
279.8059°
Eccentric anomaly
279.79828°
Mean motion
3.84883 °/min
BSTAR
0.0000584
Orbital period
93.53 mins
Loading maneuver chart data...
Loading SW <> Apogee altitude chart data...
Loading historical data...
Loading historical data...
Loading historical data...
Loading historical data...
Loading historical data...
Loading historical data...
Loading historical data...

STARLINK-32695 Visibility forecast

Observer location: undefined°, undefined°

Span
Click to sort rows by Start time (UTC) header in descending order
Start Az.
Max El. time (UTC)
Max El. Az.
Max El.
End time (UTC)
End Az.
4 mins2025-05-10 00:44:58.535Z190.191° SSW2025-05-10 00:46:58.535Z114.542° SE32.679°2025-05-10 00:48:58.535Z68.929° E
5 mins2025-05-10 07:16:58.535Z335.301° NNW2025-05-10 07:18:58.535Z32.235° NE30.661°2025-05-10 07:21:58.535Z100.095° ESE
|